Home > Weather > Fjerdingby > Past weeks

Flag for Norway Weather for the Past 2 Weeks in Fjerdingby, Norway

Now
52 °F

Cool.


Feels Like: 52 °F
Forecast: 39 / 66 °F
Wind: 1 mph from Northwest

Location: Oslo-Blindern

Current Time: May 6, 2016 at 11:34:59 PM

Latest Report: May 6, 2016 at 10:00 PM


Visibility: N/A

Pressure: 30.15 "Hg

Humidity: 43%

Dew Point: 30 °F

Location of FjerdingbyLocation

Historic Weather in Fjerdingby — Graph

°F

Fjerdingby Temperature Yesterday

Maximum temperature yesterday: 58 °F (at 2:00 PM)
Minimum temperature yesterday: 38 °F (at 5:00 AM)
Average temperature yesterday: 49 °F

High & Low Weather Summary for the Past Weeks

 TemperatureHumidityPressure
High61 °F (May 6, 5:00 PM)99% (May 4, 8:00 AM)30.32 "Hg (May 4, 8:00 AM)
Low31 °F (Apr 23, 6:00 AM)23% (Apr 22, 2:00 PM)29.62 "Hg (Apr 25, 5:00 PM)
Average44 °F63%29.98 "Hg
* Reported Apr 21 10:00 PM — May 6 10:00 PM, Fjerdingby, Weather by CustomWeather, © 2016

Note: Actual official high and low records may vary slightly from our data, if they occured in-between our weather recording intervals... More about our weather records

Advertising

Fjerdingby Weather History for the Previous 24 Hours

Scroll right to see more
 ConditionsComfort  
Time TempWeatherWind HumidityBarometerVisibility
10:00 PM
Fri, May 6
52 °FCool.1 mph43%30.15 "HgN/A
9:00 PM55 °FRefreshingly cool.2 mph39%30.15 "HgN/A
8:00 PM59 °FOvercast.3 mph39%30.14 "Hg43 mi
7:00 PM61 °FRefreshingly cool.3 mph37%30.15 "HgN/A
6:00 PM61 °FRefreshingly cool.5 mph36%30.15 "HgN/A
5:00 PM61 °FOvercast.5 mph35%30.16 "Hg37 mi
4:00 PM60 °FRefreshingly cool.6 mph36%30.17 "HgN/A
3:00 PM61 °FRefreshingly cool.6 mph40%30.18 "HgN/A
2:00 PM60 °FOvercast.5 mph44%30.19 "Hg19 mi
1:00 PM60 °FRefreshingly cool.3 mph36%30.21 "HgN/A
12:00 PM59 °FRefreshingly cool.3 mph39%30.22 "HgN/A
11:00 AM57 °FPartly sunny.3 mph46%30.23 "Hg25 mi
10:00 AM53 °FCool.2 mph57%30.24 "HgN/A
9:00 AM51 °FCool.1 mph66%30.25 "HgN/A
8:00 AM47 °FCool.1 mph76%30.26 "HgN/A
7:00 AM42 °FQuite cool.1 mph88%30.26 "HgN/A
6:00 AM39 °FChilly.2 mph91%30.26 "HgN/A
5:00 AM38 °FChilly.1 mph91%30.25 "HgN/A
4:00 AM39 °FChilly.1 mph90%30.26 "HgN/A
3:00 AM40 °FChilly.1 mph88%30.26 "HgN/A
2:00 AM41 °FQuite cool.1 mph84%30.26 "HgN/A
1:00 AM45 °FCool.2 mph78%30.26 "HgN/A
12:00 AM45 °FCool.2 mph73%30.25 "HgN/A
11:00 PM
Thu, May 5
47 °FCool.2 mph70%30.26 "HgN/A
Weather by CustomWeather, © 2016

See weather overviewHow to use our weather pages